FW5940 Weather Reports


Display with metric or nautical units.
time (UTC)temp
F
wind
direction
speed
MPH
gust
MPH
rain 1hr
in
rain 24hr
in
rain mn
in
humidity
%
barometer
mb
20260904071016 69 210 4.0 10.0 0.00 0.00 0.00 64 1021.2
20260904070017 69 209 5.0 13.0 0.00 0.00 0.00 65 1021.3
20260904065036 68 205 4.0 9.0 0.00 0.00 0.00 65 1021.4
20260904064019 68 204 4.0 9.0 0.00 0.00 0.00 67 1021.4
20260904063037 67 196 4.0 8.0 0.00 0.00 0.00 67 1021.4
20260904062038 67 196 5.0 9.0 0.00 0.00 0.00 68 1021.4
20260904061016 66 189 5.0 9.0 0.00 0.00 0.00 69 1021.5
20260904060016 65 190 4.0 8.0 0.00 0.00 0.00 70 1021.5
20260904055019 64 192 3.0 5.0 0.00 0.00 0.00 72 1021.5
20260904054018 64 191 2.0 5.0 0.00 0.00 0.00 73 1021.5
20260904053039 65 185 2.0 3.0 0.00 0.00 0.00 72 1021.5
20260904052017 64 220 2.0 4.0 0.00 0.00 0.00 71 1021.5
20260904051041 64 196 3.0 5.0 0.00 0.00 0.00 72 1021.5
20260904050016 64 254 2.0 3.0 0.00 0.00 0.00 72 1021.5
20260904045015 64 251 2.0 6.0 0.00 0.00 0.00 72 1021.4
20260904044015 63 192 2.0 6.0 0.00 0.00 0.00 72 1021.4
20260904043016 63 197 2.0 5.0 0.00 0.00 0.00 73 1021.5
20260904042019 63 205 2.0 4.0 0.00 0.00 0.00 73 1021.5
20260904041016 64 204 2.0 4.0 0.00 0.00 0.00 71 1021.6
20260904040018 64 194 2.0 5.0 0.00 0.00 0.00 71 1021.6
20260904035041 64 207 2.0 5.0 0.00 0.00 0.00 70 1021.7
20260904034016 65 198 2.0 5.0 0.00 0.00 0.00 69 1021.8
20260904033035 66 208 2.0 4.0 0.00 0.00 0.00 68 1021.8
20260904032015 66 212 3.0 5.0 0.00 0.00 0.00 67 1021.7
20260904031016 67 216 3.0 5.0 0.00 0.00 0.00 67 1021.8
20260904030016 67 216 3.0 7.0 0.00 0.00 0.00 66 1021.7
20260904025017 67 215 3.0 6.0 0.00 0.00 0.00 66 1021.8
20260904024018 67 209 3.0 6.0 0.00 0.00 0.00 66 1021.8
20260904023024 67 209 3.0 6.0 0.00 0.00 0.00 66 1022.0
20260904022037 67 205 3.0 6.0 0.00 0.00 0.00 66 1022.0
20260904021016 67 206 3.0 6.0 0.00 0.00 0.00 66 1021.9
20260904020018 67 204 5.0 9.0 0.00 0.00 0.00 66 1021.9
20260904015016 67 204 4.0 9.0 0.00 0.00 0.00 66 1022.0
20260904014038 67 205 4.0 8.0 0.00 0.00 0.00 67 1022.1
20260904013038 67 205 4.0 7.0 0.00 0.00 0.00 67 1022.1
20260904012016 67 204 4.0 10.0 0.00 0.00 0.00 67 1022.2
20260904011017 67 203 4.0 7.0 0.00 0.00 0.00 68 1022.3
20260904010016 67 200 3.0 7.0 0.00 0.00 0.00 68 1022.3
20260904005018 67 204 3.0 7.0 0.00 0.00 0.00 69 1022.2
20260904004018 67 201 3.0 6.0 0.00 0.00 0.00 69 1022.3
20260904003019 67 202 3.0 6.0 0.00 0.00 0.00 69 1022.4
20260904002058 67 199 2.0 4.0 0.00 0.00 0.00 69 1022.4
20260904001037 67 199 3.0 6.0 0.00 0.00 0.00 69 1022.5
20260904000036 67 192 3.0 6.0 0.00 0.00 0.00 69 1022.5
20260903235037 67 187 3.0 5.0 0.00 0.00 0.00 69 1022.6
20260903234017 67 203 2.0 5.0 0.00 0.00 0.00 68 1022.7
20260903233016 67 199 3.0 6.0 0.00 0.00 0.00 68 1022.9
20260903232019 67 197 3.0 7.0 0.00 0.00 0.00 68 1022.8
20260903231016 67 185 2.0 4.0 0.00 0.00 0.00 68 1022.8
20260903230018 67 192 2.0 6.0 0.00 0.00 0.00 68 1022.8
20260903225016 67 191 3.0 7.0 0.00 0.00 0.00 68 1022.9
20260903224016 67 194 2.0 5.0 0.00 0.00 0.00 68 1022.9
20260903223017 67 204 3.0 5.0 0.00 0.00 0.00 68 1022.9
20260903222018 66 202 2.0 4.0 0.00 0.00 0.00 69 1023.0
20260903221019 66 195 3.0 6.0 0.00 0.00 0.00 70 1023.1
20260903220016 65 200 3.0 5.0 0.00 0.00 0.00 73 1023.1
20260903215037 65 205 3.0 5.0 0.00 0.00 0.00 72 1023.0
20260903214016 66 206 2.0 4.0 0.00 0.00 0.00 71 1022.9
20260903213016 66 201 2.0 6.0 0.00 0.00 0.00 69 1022.7
20260903212018 66 191 3.0 6.0 0.00 0.00 0.00 68 1022.6
20260903211038 67 192 2.0 5.0 0.00 0.00 0.00 68 1022.6
20260903210018 67 200 3.0 5.0 0.00 0.00 0.00 68 1022.7
20260903205016 67 207 2.0 4.0 0.00 0.00 0.00 69 1022.8
20260903204020 66 204 2.0 4.0 0.00 0.00 0.00 72 1022.8
20260903203017 66 204 0.0 1.0 0.00 0.00 0.00 73 1022.8
20260903202016 66 0.0 0.0 0.00 0.00 0.00 74 1022.7
20260903201018 66 0.0 0.0 0.00 0.00 0.00 73 1022.6
20260903200018 67 204 0.0 1.0 0.00 0.00 0.00 70 1022.6
20260903195027 67 204 1.0 4.0 0.00 0.00 0.00 68 1022.4
20260903194016 67 203 2.0 4.0 0.00 0.00 0.00 69 1022.4
20260903193035 67 199 2.0 4.0 0.00 0.00 0.00 69 1022.3
20260903192017 67 198 1.0 4.0 0.00 0.00 0.00 68 1022.2
20260903191015 67 192 2.0 5.0 0.00 0.00 0.00 67 1022.1
20260903190038 67 214 3.0 4.0 0.00 0.00 0.00 67 1022.0
20260903185016 68 207 3.0 4.0 0.00 0.00 0.00 68 1022.0
20260903184019 68 221 2.0 3.0 0.00 0.00 0.00 67 1021.9
20260903183036 69 223 3.0 5.0 0.00 0.00 0.00 65 1021.8
20260903182016 69 225 2.0 4.0 0.00 0.00 0.00 66 1021.8
20260903181016 69 232 2.0 7.0 0.00 0.00 0.00 67 1021.8
20260903180017 70 235 2.0 4.0 0.00 0.00 0.00 70 1021.6
20260903175017 70 220 2.0 4.0 0.00 0.00 0.00 69 1021.6
20260903174016 72 239 2.0 4.0 0.00 0.00 0.00 65 1021.6
20260903173018 73 234 2.0 9.0 0.00 0.00 0.00 58 1021.7
20260903172015 73 230 4.0 9.0 0.00 0.00 0.00 57 1021.6
20260903171031 73 232 6.0 11.0 0.00 0.00 0.00 58 1021.5
20260903170016 74 224 3.0 7.0 0.00 0.00 0.00 58 1021.5
20260903165016 74 227 2.0 4.0 0.00 0.00 0.00 56 1021.4
20260903164018 75 227 4.0 9.0 0.00 0.00 0.00 55 1021.5
20260903163017 75 246 5.0 10.0 0.00 0.00 0.00 56 1021.4
20260903162103 75 263 5.0 11.0 0.00 0.00 0.00 56 1021.4
20260903161017 76 257 5.0 12.0 0.00 0.00 0.00 54 1021.4
20260903160035 76 223 3.0 7.0 0.00 0.00 0.00 56 1021.4
20260903155017 76 239 4.0 11.0 0.00 0.00 0.00 54 1021.4
20260903154016 76 250 5.0 9.0 0.00 0.00 0.00 53 1021.5
20260903153038 76 256 5.0 11.0 0.00 0.00 0.00 53 1021.4
20260903152017 76 261 5.0 10.0 0.00 0.00 0.00 52 1021.4
20260903151018 77 264 5.0 12.0 0.00 0.00 0.00 53 1021.5
20260903150016 78 264 7.0 14.0 0.00 0.00 0.00 52 1021.4
20260903145037 77 254 5.0 11.0 0.00 0.00 0.00 52 1021.5
20260903144037 76 269 5.0 11.0 0.00 0.00 0.00 54 1021.6
20260903143040 77 265 6.0 11.0 0.00 0.00 0.00 53 1021.9
20260903142017 77 252 6.0 10.0 0.00 0.00 0.00 53 1021.9
20260903141016 77 246 6.0 11.0 0.00 0.00 0.00 52 1021.9
20260903140017 77 269 4.0 9.0 0.00 0.00 0.00 53 1021.8
20260903135104 77 248 5.0 11.0 0.00 0.00 0.00 52 1021.9
20260903134016 78 222 7.0 14.0 0.00 0.00 0.00 50 1021.8
20260903133016 78 262 5.0 14.0 0.00 0.00 0.00 52 1021.8
20260903132058 77 267 7.0 14.0 0.00 0.00 0.00 51 1021.9
20260903131017 76 257 6.0 10.0 0.00 0.00 0.00 53 1022.0
20260903130017 75 246 6.0 11.0 0.00 0.00 0.00 53 1022.1
20260903125017 76 263 7.0 12.0 0.00 0.00 0.00 52 1022.1
20260903124016 77 250 5.0 10.0 0.00 0.00 0.00 52 1022.2
20260903123015 77 264 6.0 12.0 0.00 0.00 0.00 53 1022.2
20260903122016 77 269 6.0 12.0 0.00 0.00 0.00 53 1022.4
20260903121016 76 260 5.0 12.0 0.00 0.00 0.00 54 1022.4
20260903120023 75 251 5.0 10.0 0.00 0.00 0.00 54 1022.4
20260903115039 76 261 6.0 13.0 0.00 0.00 0.00 53 1022.4
20260903114015 77 265 7.0 13.0 0.00 0.00 0.00 52 1022.3
20260903113017 77 251 6.0 13.0 0.00 0.00 0.00 51 1022.4
20260903112016 78 255 8.0 14.0 0.00 0.00 0.00 51 1022.4
20260903111016 79 262 9.0 17.0 0.00 0.00 0.00 50 1022.3
20260903110015 79 233 10.0 20.0 0.00 0.00 0.00 50 1022.3
20260903105020 78 266 7.0 15.0 0.00 0.00 0.00 53 1022.5
20260903104038 78 264 9.0 15.0 0.00 0.00 0.00 53 1022.7
20260903103015 77 256 5.0 12.0 0.00 0.00 0.00 57 1022.6
20260903102018 77 234 7.0 12.0 0.00 0.00 0.00 54 1022.6
20260903101015 76 231 6.0 15.0 0.00 0.00 0.00 55 1022.7
20260903100017 76 237 5.0 11.0 0.00 0.00 0.00 56 1022.7
20260903095018 76 223 6.0 10.0 0.00 0.00 0.00 56 1022.9
20260903094036 75 227 7.0 15.0 0.00 0.00 0.00 57 1023.0
20260903093016 74 256 5.0 12.0 0.00 0.00 0.00 58 1023.1
20260903092058 73 232 5.0 14.0 0.00 0.00 0.00 58 1023.2
20260903091017 73 246 7.0 12.0 0.00 0.00 0.00 58 1023.2
20260903090015 73 268 6.0 11.0 0.00 0.00 0.00 59 1023.2
20260903085017 73 259 5.0 12.0 0.00 0.00 0.00 59 1023.0
20260903084015 72 237 3.0 9.0 0.00 0.00 0.00 61 1023.2
20260903083020 72 266 4.0 9.0 0.00 0.00 0.00 60 1023.2
20260903082036 70 244 3.0 6.0 0.00 0.00 0.00 64 1023.0
20260903081017 70 218 3.0 8.0 0.00 0.00 0.00 65 1023.0
20260903080016 70 228 3.0 7.0 0.00 0.00 0.00 65 1023.0
20260903075019 69 245 2.0 4.0 0.00 0.00 0.00 67 1023.0
20260903074017 68 230 4.0 9.0 0.00 0.00 0.00 69 1023.1
20260903073016 67 210 3.0 9.0 0.00 0.00 0.00 70 1023.3
20260903072017 67 204 3.0 5.0 0.00 0.00 0.00 71 1023.4